Regional Weather Roundup
Issued by NWS

Home | Current Version | Previous Version | Graphics & Text | Print | Product List | Glossary On
Versions: 1 2 3 4 5 6 7 8 9 10 11 12 13 14 15 16 17 18 19 20 21 22 23 24 25 26 27 28 29 30 31 32 33 34 35 36 37 38 39 40 41 42 43 44 45 46 47 48 49 50
000
ASUS43 KLMK 311102
RWRKY
KENTUCKY REGIONAL WEATHER ROUNDUP
NATIONAL WEATHER SERVICE LOUISVILLE KY
700 AM EDT MON AUG 31 2015

NOTE "FAIR" INDICATES FEW OR NO CLOUDS BELOW 12,000 FEET
WITH NO SIGNIFICANT WEATHER AND/OR OBSTRUCTIONS TO VISIBILITY.

KYZ001>023-026-027-061>063-070>075-311200-
WESTERN AND SOUTH CENTRAL KENTUCKY

CITY           SKY/WX    TMP DP  RH WIND       PRES   REMARKS
PADUCAH        MOCLDY    66  64  93 CALM      30.07R FOG
HENDERSON      CLEAR     64  61  88 CALM      30.07R
OWENSBORO      CLEAR     67  66  96 SE5       30.10R
HOPKINSVILLE   CLEAR     64  64 100 NE1       30.09R FOG
BOWLING GREEN  CLEAR     64  62  93 CALM      30.11R
GLASGOW        NOT AVBL
$$

KYZ024-025-028>034-038-045-046-053-311200-
NORTH CENTRAL KENTUCKY

CITY           SKY/WX    TMP DP  RH WIND       PRES   REMARKS
LOUISVILLE/SDF PTCLDY    68  65  90 SE3       30.10R
LOUISVILLE/LOU CLEAR     68  65  90 CALM      30.11R
FORT KNOX      CLEAR     63  62  95 CALM      30.10R
$$

KYZ035>037-039>044-047>052-055>060-089>105-311200-
NORTHEAST KENTUCKY

CITY           SKY/WX    TMP DP  RH WIND       PRES   REMARKS
LEXINGTON      CLOUDY    67  64  90 S3        30.12R
COVINGTON      PTCLDY    65  64  97 S3        30.10R
FRANKFORT      CLEAR     64  62  93 CALM      30.11R
$$

KYZ054-064>069-076>088-106>120-311200-
SOUTHEAST KENTUCKY

CITY           SKY/WX    TMP DP  RH WIND       PRES   REMARKS
JACKSON        FOG       66  64  93 CALM      30.13R VSB 1/4
LONDON         FOG       66  62  87 CALM      30.13R VSB 3/4
SOMERSET       NOT AVBL
MIDDLESBORO    NOT AVBL
MONTICELLO     FOG       60  60 100 CALM      30.16R VSB<1/4
$$




USA.gov is the U.S. government's official web portal to all federal, state and local government web resources and services.